Regional Weather Roundup
Issued by NWS Sterling, VA

Home | Current Version | Previous Version | Text Only | Print | Product List | Glossary Off
Versions: 1 2 3 4 5 6 7 8 9 10 11 12 13 14 15 16 17 18 19 20 21 22 23 24 25 26 27 28 29 30 31 32 33 34 35 36 37 38 39 40 41 42 43 44 45 46 47 48 49 50

047
ASUS41 KLWX 211011
RWRLWX

REGIONAL WEATHER ROUNDUP
NATIONAL WEATHER SERVICE BALTIMORE MD/WASHINGTON DC
500 AM EST SUN JAN 21 2018

Note: "FAIR" indicates few or no clouds below 12,000 feet
with no significant weather and/or obstructions to visibility.
 TC=TEMPERATURE CELSIUS

 * =Non NWS site. Station does not report precipitation (e.g. rain,
    snow, etc.), thunder, or fog.

DCZ001-MDZ009-015-VAZ040>042-051-053>054-211100-
WASHINGTON METRO

CITY           SKY/WX    TMP DP  RH WIND       PRES   REMARKS
WASHINGTON NAT FAIR      34  32  92 CALM      30.16R
DULLES         FAIR      29  26  89 CALM      30.15R
ANDREWS AFB    FAIR      32  28  84 CALM      30.14R
FT BELVOIR     FAIR      28  24  86 CALM        N/A
COLLEGE PARK*  FAIR      29  27  90 CALM      30.15R
LEESBURG*      FAIR      34  30  86 CALM      30.15R
MANASSAS*      FAIR      24  21  88 CALM      30.16R
GAITHERSBURG*  MOCLDY    38  32  79 SE3       30.14R

$$

MDZ006>007-011-014-211100-
BALTIMORE METRO

CITY           SKY/WX    TMP DP  RH WIND       PRES   REMARKS
BWI AIRPORT    FAIR      34  30  85 CALM      30.14R
MD SCIENCE CTR   N/A     41  32  70 MISG      30.14R
MARTIN STATE   FAIR      30  30 100 CALM      30.16R
ANNAPOLIS      FAIR      33  31  92 CALM      30.15R
FORT MEADE*    MOCLDY    28  27  93 CALM      30.16S

$$

MDZ012-015-019>023-211100-
MARYLAND EASTERN SHORE

CITY           SKY/WX    TMP DP  RH WIND       PRES   REMARKS
OCEAN CITY     FAIR      29  28  96 CALM      30.15R
SALISBURY      FAIR      29  26  89 CALM      30.15R
BAY BRIDGE AP* FAIR      30  28  93 CALM      30.15R
CAMBRIDGE*     CLEAR     28  27  93 CALM      30.16R
EASTON*        FAIR      32  27  82 CALM      30.18S

$$

MDZ017>025-211100-
SOUTHERN MARYLAND

CITY           SKY/WX    TMP DP  RH WIND       PRES   REMARKS
PATUXENT RIVER NOT AVBL
ST INIGOES     FAIR      30  27  88 CALM      30.15R
LEONARDTOWN*   FAIR      32  30  93 CALM      30.17R

$$

MDZ003>005-211100-
NORTH CENTRAL MARYLAND

CITY           SKY/WX    TMP DP  RH WIND       PRES   REMARKS
FREDERICK*     CLOUDY    37  32  81 CALM      30.16R
HAGERSTOWN APT CLOUDY    46  37  71 CALM      30.12R
WESTMINSTER*   CLOUDY    45  37  76 CALM      30.12S

$$

MDZ501>502-211100-
WESTERN MARYLAND

CITY           SKY/WX    TMP DP  RH WIND       PRES   REMARKS
OAKLAND*       CLOUDY    39  39 100 W9G20     30.10R WCI  33
CUMBERLAND*    CLOUDY    46  39  76 CALM      30.16R

$$

VAZ025>031-211100-
SHENANDOAH VALLEY

CITY           SKY/WX    TMP DP  RH WIND       PRES   REMARKS
WINCHESTER*    CLOUDY    36  30  80 CALM      30.15R
FRONT ROYAL*   FAIR      37  32  81 MISG      30.12R
LURAY*         FAIR      34  32  93 CALM      30.14R
NEW MARKET*    MOCLDY    32  28  86 CALM      30.13S
STAUNTON*      MOCLDY    29  27  92 CALM      30.16S
WAYNESBORO*    FAIR      49  42  76 SW9       30.14S

$$

WVZ021-048>050-054>055-211100-
EASTERN WEST VIRGINIA PANHANDLE

CITY           SKY/WX    TMP DP  RH WIND       PRES   REMARKS
MARTINSBURG    CLOUDY    43  37  79 CALM      30.12R
PETERSBURG*    CLOUDY    47  40  76 NE3       30.12R

$$

VAZ036>039-050-211100-
CENTRAL FOOTHILLS

CITY           SKY/WX    TMP DP  RH WIND       PRES   REMARKS
CHARLOTTESVILL FAIR      40  34  79 CALM      30.14R
CULPEPER*      FAIR      28  24  87 N3        30.16R
ORANGE*        FAIR      30  27  86 CALM      30.14R
GORDONSVILLE*  FAIR      33  32  96 SW3       30.14S
WARRENTON*     FAIR      26  22  84 CALM      30.14R

$$

VAZ055>057-211100-
NORTH AND CENTRAL PIEDMONT

CITY           SKY/WX    TMP DP  RH WIND       PRES   REMARKS
FREDERICKSBRG* FAIR      30  29  94 CALM      30.15R
STAFFORD*      FAIR      28  28 100 CALM      30.19R

$$

NCZ024-NYZ072-PAZ021-071-VAZ022-071-211100-
OTHER REGIONAL OBSERVATIONS

CITY           SKY/WX    TMP DP  RH WIND       PRES   REMARKS
NEW YORK CITY  FAIR      44  27  51 W3        30.11R
PHILADELPHIA   FAIR      33  28  81 W3        30.14R
PITTSBURGH     DRZL/FOG  40  40 100 S3        30.11S VSB 1
ROANOKE        FAIR      46  38  73 W8        30.19S
RICHMOND       FAIR      30  28  92 S5        30.16R WCI  25
RALEIGH        FAIR      33  30  88 CALM      30.20R

$$

ANZ530>537-211100-
MARINE OBSERVATIONS

STATION/POSITION TIME  TEMP    WIND        PRES
                       AIR SEA DIR/SP/G
                 (UTC) (F)     (DEG/KT/KT) (MB)
THOMAS PT LIGHT  1000   37 33  210/  4/  5   N/A
BALT KEY BRIDGE  0942   41     360/  2/  3 1020.8R
COVE POINT       0942   45      CALM  /  2 1021.7R
LEWISETTA        0942   33 33  290/  2/  3 1021.0R
SOLOMONS ISLAND  0942   33 34  300/  2/  3 1020.9R
PINEY POINT      0942           CALM  /  1   N/A

$$





USA.gov is the U.S. government's official web portal to all federal, state and local government web resources and services.